,,,PA_Meas_PMT16A,,PR_Meas_QMR101_102,,RH_Meas_QMH101,,SR_Meas_QMS101,,TA_Meas_QMH101,,GenWind,,GenWind,
date,time,status,PA,status,PR,status,RH,status,SR,status,TA,status,DirAvg,status,SpdAvg,
2012-01-27, 00:00:04,VALID,999.343,VALID,0,VALID,90.4873,VALID,0,VALID,24.2671,VALID,162,VALID,0.529297,
2012-01-27, 00:01:04,VALID,999.37,VALID,0,VALID,90.5254,VALID,0,VALID,24.2866,VALID,162,VALID,0.512109,
2012-01-27, 00:02:04,VALID,999.35,VALID,0,VALID,90.3957,VALID,0,VALID,24.3257,VALID,162,VALID,0.248828,
2012-01-27, 00:03:04,VALID,999.338,VALID,0,VALID,90.2279,VALID,0,VALID,24.3452,VALID,162,VALID,0.445703,
2012-01-27, 00:04:04,VALID,999.332,VALID,0,VALID,90.06,VALID,0,VALID,24.3257,VALID,177,VALID,0.604688,
2012-01-27, 00:05:04,VALID,999.315,VALID,0,VALID,89.938,VALID,0,VALID,24.2671,VALID,316,VALID,0.833984,
2012-01-27, 00:06:04,VALID,999.305,VALID,0,VALID,90.0143,VALID,0.104696,VALID,24.2281,VALID,316,VALID,0.828125,
2012-01-27, 00:07:04,VALID,999.266,VALID,0,VALID,90.1592,VALID,0,VALID,24.1482,VALID,316,VALID,0.715625,
2012-01-27, 00:08:04,VALID,999.206,VALID,0,VALID,90.3881,VALID,0,VALID,24.111,VALID,316,VALID,0.497266,
2012-01-27, 00:09:04,VALID,999.203,VALID,0,VALID,90.5941,VALID,0,VALID,24.0525,VALID,316,VALID,0.273438,
2012-01-27, 00:10:04,VALID,999.187,VALID,0,VALID,90.7772,VALID,0,VALID,24.0116,VALID,316,VALID,0.198828,
2012-01-27, 00:11:04,VALID,999.141,VALID,0,VALID,90.8077,VALID,0,VALID,23.9921,VALID,316,VALID,0.2,
2012-01-27, 00:12:04,VALID,999.146,VALID,0,VALID,90.8001,VALID,0,VALID,23.9939,VALID,316,VALID,0,
2012-01-27, 00:13:04,VALID,999.098,VALID,0,VALID,90.7085,VALID,0,VALID,23.9744,VALID,316,VALID,0,
2012-01-27, 00:14:04,VALID,999.108,VALID,0,VALID,90.6551,VALID,0,VALID,23.9336,VALID,316,VALID,0.125391,
2012-01-27, 00:15:04,VALID,999.13,VALID,0,VALID,90.7085,VALID,0,VALID,23.9159,VALID,316,VALID,0,
2012-01-27, 00:16:04,VALID,999.12,VALID,0,VALID,90.8535,VALID,0,VALID,23.8963,VALID,316,VALID,0,
2012-01-27, 00:17:04,VALID,999.12,VALID,0,VALID,90.9756,VALID,0,VALID,23.9159,VALID,316,VALID,0,
2012-01-27, 00:18:04,VALID,999.065,VALID,0,VALID,91.1358,VALID,0,VALID,23.9354,VALID,316,VALID,0.127734,
2012-01-27, 00:19:04,VALID,999.08,VALID,0,VALID,91.1206,VALID,0,VALID,23.9549,VALID,316,VALID,0.223047,
2012-01-27, 00:20:04,VALID,999.046,VALID,0,VALID,91.0595,VALID,0,VALID,23.9549,VALID,316,VALID,0.0105469,
2012-01-27, 00:21:04,VALID,999.063,VALID,0,VALID,91.0366,VALID,0,VALID,23.9336,VALID,316,VALID,0.293359,
2012-01-27, 00:22:04,VALID,999.066,VALID,0,VALID,91.0671,VALID,0,VALID,23.9549,VALID,316,VALID,0.457812,
2012-01-27, 00:23:04,VALID,999.035,VALID,0,VALID,91.1282,VALID,0,VALID,23.9354,VALID,316,VALID,0.530078,
2012-01-27, 00:24:04,VALID,999.013,VALID,0,VALID,91.174,VALID,0,VALID,23.9159,VALID,316,VALID,0.748828,
2012-01-27, 00:25:04,VALID,999.022,VALID,0,VALID,91.1968,VALID,0,VALID,23.8555,VALID,316,VALID,0.523828,
2012-01-27, 00:26:04,VALID,999.024,VALID,0,VALID,91.2655,VALID,0,VALID,23.8378,VALID,316,VALID,0.365234,
2012-01-27, 00:27:04,VALID,999.003,VALID,0,VALID,91.3342,VALID,0,VALID,23.8378,VALID,316,VALID,0.16875,
2012-01-27, 00:28:04,VALID,998.976,VALID,0,VALID,91.3342,VALID,0,VALID,23.8378,VALID,316,VALID,0,
2012-01-27, 00:29:04,VALID,998.957,VALID,0,VALID,91.3494,VALID,0,VALID,23.8378,VALID,316,VALID,0.186719,
2012-01-27, 00:30:04,VALID,998.904,VALID,0,VALID,91.4181,VALID,0,VALID,23.8378,VALID,313,VALID,0.429297,
2012-01-27, 00:31:04,VALID,998.883,VALID,0,VALID,91.4334,VALID,0,VALID,23.8573,VALID,300,VALID,0.5375,
2012-01-27, 00:32:04,VALID,998.847,VALID,0,VALID,91.441,VALID,0,VALID,23.8963,VALID,252,VALID,0.415234,
2012-01-27, 00:33:04,VALID,998.867,VALID,0,VALID,91.3571,VALID,0,VALID,23.8963,VALID,252,VALID,0.274609,
2012-01-27, 00:34:04,VALID,998.823,VALID,0,VALID,91.2808,VALID,0,VALID,23.8945,VALID,252,VALID,0.572656,
2012-01-27, 00:35:04,VALID,998.831,VALID,0,VALID,91.2197,VALID,0,VALID,23.9354,VALID,252,VALID,0.635938,
2012-01-27, 00:36:04,VALID,998.848,VALID,0,VALID,91.1282,VALID,0,VALID,23.9744,VALID,252,VALID,0.316797,
2012-01-27, 00:37:04,VALID,998.831,VALID,0,VALID,91.0061,VALID,0,VALID,23.9744,VALID,252,VALID,0,
2012-01-27, 00:38:04,VALID,998.856,VALID,0,VALID,90.9222,VALID,0,VALID,23.9744,VALID,252,VALID,0,
2012-01-27, 00:39:04,VALID,998.876,VALID,0,VALID,90.8688,VALID,0,VALID,23.9744,VALID,252,VALID,0,
2012-01-27, 00:40:04,VALID,998.826,VALID,0,VALID,90.9374,VALID,0,VALID,23.9549,VALID,252,VALID,0,
2012-01-27, 00:41:04,VALID,998.822,VALID,0,VALID,91.0443,VALID,0,VALID,23.9354,VALID,252,VALID,0,
2012-01-27, 00:42:04,VALID,998.814,VALID,0,VALID,91.0671,VALID,0,VALID,23.8963,VALID,252,VALID,0,
2012-01-27, 00:43:04,VALID,998.816,VALID,0,VALID,91.1434,VALID,0,VALID,23.8768,VALID,252,VALID,0,
2012-01-27, 00:44:04,VALID,998.76,VALID,0,VALID,91.2579,VALID,0,VALID,23.8768,VALID,252,VALID,0,
2012-01-27, 00:45:04,VALID,998.742,VALID,0,VALID,91.3647,VALID,0,VALID,23.8573,VALID,252,VALID,0,
2012-01-27, 00:46:04,VALID,998.723,VALID,0,VALID,91.4639,VALID,0,VALID,23.8378,VALID,252,VALID,0,
2012-01-27, 00:47:04,VALID,998.714,VALID,0,VALID,91.5249,VALID,0,VALID,23.8165,VALID,252,VALID,0,
2012-01-27, 00:48:04,VALID,998.694,VALID,0,VALID,91.5173,VALID,0,VALID,23.7988,VALID,252,VALID,0,
2012-01-27, 00:49:04,VALID,998.71,VALID,0,VALID,91.5478,VALID,0,VALID,23.7775,VALID,252,VALID,0,
2012-01-27, 00:50:04,VALID,998.688,VALID,0,VALID,91.5249,VALID,0,VALID,23.7793,VALID,252,VALID,0,
2012-01-27, 00:51:04,VALID,998.661,VALID,0,VALID,91.5707,VALID,0,VALID,23.7384,VALID,252,VALID,0,
2012-01-27, 00:52:04,VALID,998.643,VALID,0,VALID,91.6928,VALID,0,VALID,23.7402,VALID,252,VALID,0,
2012-01-27, 00:53:04,VALID,998.598,VALID,0,VALID,91.7462,VALID,0,VALID,23.7207,VALID,165,VALID,0.938672,
2012-01-27, 00:54:04,VALID,998.595,VALID,0,VALID,91.7462,VALID,0,VALID,23.7597,VALID,161,VALID,0.876953,
2012-01-27, 00:55:04,VALID,998.56,VALID,0,VALID,91.7004,VALID,0,VALID,23.7793,VALID,161,VALID,0.771094,
2012-01-27, 00:56:04,VALID,998.568,VALID,0,VALID,91.6012,VALID,0,VALID,23.7988,VALID,161,VALID,0.824219,
2012-01-27, 00:57:04,VALID,998.571,VALID,0,VALID,91.4486,VALID,0,VALID,23.7988,VALID,161,VALID,0.813672,
2012-01-27, 00:58:04,VALID,998.57,VALID,0,VALID,91.2579,VALID,0,VALID,23.8378,VALID,148,VALID,0.728516,
2012-01-27, 00:59:04,VALID,998.552,VALID,0,VALID,91.1663,VALID,0,VALID,23.8165,VALID,137,VALID,0.621484,
2012-01-27, 01:00:04,VALID,998.538,VALID,0,VALID,91.0977,VALID,0,VALID,23.8183,VALID,137,VALID,0.500391,
2012-01-27, 01:01:04,VALID,998.524,VALID,0,VALID,91.0824,VALID,0,VALID,23.8183,VALID,137,VALID,0.1625,
2012-01-27, 01:02:04,VALID,998.525,VALID,0,VALID,91.0671,VALID,0,VALID,23.8183,VALID,137,VALID,0,
2012-01-27, 01:03:04,VALID,998.508,VALID,0,VALID,91.0977,VALID,0,VALID,23.8183,VALID,137,VALID,0.00585938,
2012-01-27, 01:04:04,VALID,998.517,VALID,0,VALID,91.1511,VALID,0,VALID,23.7775,VALID,137,VALID,0.24375,
2012-01-27, 01:05:04,VALID,998.494,VALID,0,VALID,91.1892,VALID,0,VALID,23.7793,VALID,137,VALID,0,
2012-01-27, 01:06:04,VALID,998.442,VALID,0,VALID,91.2045,VALID,0,VALID,23.7384,VALID,137,VALID,0,
2012-01-27, 01:07:04,VALID,998.447,VALID,0,VALID,91.2884,VALID,0,VALID,23.7597,VALID,137,VALID,0,
2012-01-27, 01:08:04,VALID,998.434,VALID,0,VALID,91.4105,VALID,0,VALID,23.7597,VALID,137,VALID,0,
2012-01-27, 01:09:04,VALID,998.412,VALID,0,VALID,91.502,VALID,0,VALID,23.7793,VALID,140,VALID,0,
2012-01-27, 01:10:04,VALID,998.366,VALID,0,VALID,91.5249,VALID,0,VALID,23.7988,VALID,140,VALID,0,
2012-01-27, 01:11:04,VALID,998.368,VALID,0,VALID,91.4791,VALID,0,VALID,23.8183,VALID,140,VALID,0,
2012-01-27, 01:12:04,VALID,998.364,VALID,0,VALID,91.441,VALID,0,VALID,23.8378,VALID,140,VALID,0,
2012-01-27, 01:13:04,VALID,998.37,VALID,0,VALID,91.3723,VALID,0,VALID,23.8573,VALID,140,VALID,0,
2012-01-27, 01:14:04,VALID,998.336,VALID,0,VALID,91.296,VALID,0,VALID,23.8573,VALID,140,VALID,0,
2012-01-27, 01:15:04,VALID,998.325,VALID,0,VALID,91.1968,VALID,0,VALID,23.8768,VALID,140,VALID,0,
2012-01-27, 01:16:04,VALID,998.358,VALID,0,VALID,91.1968,VALID,0,VALID,23.8768,VALID,140,VALID,0,
2012-01-27, 01:17:04,VALID,998.377,VALID,0,VALID,91.2121,VALID,0,VALID,23.8768,VALID,139,VALID,0,
2012-01-27, 01:18:04,VALID,998.357,VALID,0,VALID,91.1587,VALID,0,VALID,23.875,VALID,139,VALID,0,
2012-01-27, 01:19:04,VALID,998.335,VALID,0,VALID,91.0443,VALID,0,VALID,23.9354,VALID,139,VALID,0,
2012-01-27, 01:20:04,VALID,998.324,VALID,0,VALID,91.0137,VALID,0,VALID,23.9744,VALID,139,VALID,0,
2012-01-27, 01:21:04,VALID,998.303,VALID,0,VALID,91.09,VALID,0,VALID,24.0134,VALID,139,VALID,0,
2012-01-27, 01:22:04,VALID,998.305,VALID,0,VALID,91.1282,VALID,0,VALID,24.0329,VALID,139,VALID,0,
2012-01-27, 01:23:04,VALID,998.31,VALID,0,VALID,91.174,VALID,0,VALID,24.072,VALID,139,VALID,0,
2012-01-27, 01:24:04,VALID,998.304,VALID,0,VALID,91.2579,VALID,0,VALID,24.0915,VALID,127,VALID,0.503516,
2012-01-27, 01:25:04,VALID,998.323,VALID,0,VALID,91.3113,VALID,0,VALID,24.1305,VALID,127,VALID,0.236719,
2012-01-27, 01:26:04,VALID,998.317,VALID,0,VALID,91.4257,VALID,0,VALID,24.1287,VALID,127,VALID,0.591016,
2012-01-27, 01:27:04,VALID,998.3,VALID,0,VALID,91.4486,VALID,0,VALID,24.1696,VALID,117,VALID,0.402344,
2012-01-27, 01:28:04,VALID,998.272,VALID,0,VALID,91.4715,VALID,0,VALID,24.1696,VALID,117,VALID,0.214062,
2012-01-27, 01:29:04,VALID,998.234,VALID,0,VALID,91.441,VALID,0,VALID,24.1482,VALID,117,VALID,0.132031,
2012-01-27, 01:30:04,VALID,998.23,VALID,0,VALID,91.441,VALID,0.104696,VALID,24.1696,VALID,117,VALID,0,
2012-01-27, 01:31:04,VALID,998.188,VALID,0,VALID,91.4563,VALID,0,VALID,24.1482,VALID,117,VALID,0.408984,
2012-01-27, 01:32:04,VALID,998.169,VALID,0,VALID,91.4105,VALID,0,VALID,24.1287,VALID,71,VALID,0.422656,
2012-01-27, 01:33:04,VALID,998.129,VALID,0,VALID,91.3723,VALID,0,VALID,24.111,VALID,63,VALID,0.549609,
2012-01-27, 01:34:04,VALID,998.149,VALID,0,VALID,91.2655,VALID,0,VALID,24.0915,VALID,54,VALID,0.541016,
2012-01-27, 01:35:04,VALID,998.163,VALID,0,VALID,91.2808,VALID,0,VALID,24.072,VALID,54,VALID,0.503516,
2012-01-27, 01:36:04,VALID,998.172,VALID,0,VALID,91.2655,VALID,0,VALID,24.072,VALID,54,VALID,0.15625,
2012-01-27, 01:37:04,VALID,998.188,VALID,0,VALID,91.3037,VALID,0,VALID,24.0525,VALID,54,VALID,0,
2012-01-27, 01:38:04,VALID,998.155,VALID,0,VALID,91.4334,VALID,0,VALID,24.0329,VALID,54,VALID,0,
2012-01-27, 01:39:04,VALID,998.16,VALID,0,VALID,91.4715,VALID,0,VALID,24.0134,VALID,54,VALID,0,
2012-01-27, 01:40:04,VALID,998.158,VALID,0,VALID,91.5631,VALID,0,VALID,24.0134,VALID,54,VALID,0,
2012-01-27, 01:41:04,VALID,998.12,VALID,0,VALID,91.6088,VALID,0,VALID,24.0134,VALID,54,VALID,0.112891,
2012-01-27, 01:42:04,VALID,998.11,VALID,0,VALID,91.7004,VALID,0,VALID,24.0134,VALID,51,VALID,0.983984,
2012-01-27, 01:43:04,VALID,998.101,VALID,0,VALID,91.7996,VALID,0,VALID,23.9939,VALID,44,VALID,1.0668,
2012-01-27, 01:44:04,VALID,998.14,VALID,0,VALID,91.8454,VALID,0,VALID,23.9939,VALID,44,VALID,0.957031,
2012-01-27, 01:45:04,VALID,998.115,VALID,0,VALID,91.8454,VALID,0,VALID,23.9939,VALID,44,VALID,0.863281,
2012-01-27, 01:46:04,VALID,998.142,VALID,0,VALID,91.8606,VALID,0,VALID,23.9744,VALID,44,VALID,0.746875,
2012-01-27, 01:47:04,VALID,998.188,VALID,0,VALID,91.8835,VALID,0,VALID,23.9939,VALID,44,VALID,0.485938,
2012-01-27, 01:48:04,VALID,998.252,VALID,0,VALID,91.9064,VALID,0,VALID,23.9939,VALID,44,VALID,0.612109,
2012-01-27, 01:49:04,VALID,998.278,VALID,0,VALID,91.9751,VALID,0,VALID,23.9939,VALID,46,VALID,0.850781,
2012-01-27, 01:50:04,VALID,998.335,VALID,0,VALID,92.0514,VALID,0,VALID,23.9939,VALID,62,VALID,1.35977,
2012-01-27, 01:51:04,VALID,998.36,VALID,0,VALID,92.059,VALID,0,VALID,23.9939,VALID,58,VALID,1.27578,
2012-01-27, 01:52:04,VALID,998.347,VALID,0,VALID,91.998,VALID,0,VALID,24.0134,VALID,64,VALID,1.1207,
2012-01-27, 01:53:04,VALID,998.356,VALID,0,VALID,91.9751,VALID,0,VALID,24.0134,VALID,68,VALID,0.99375,
2012-01-27, 01:54:04,VALID,998.332,VALID,0,VALID,91.9598,VALID,0,VALID,24.0329,VALID,68,VALID,0.767187,
2012-01-27, 01:55:04,VALID,998.338,VALID,0,VALID,91.9598,VALID,0,VALID,24.0329,VALID,68,VALID,0.960156,
2012-01-27, 01:56:04,VALID,998.334,VALID,0,VALID,91.9751,VALID,0,VALID,24.0525,VALID,69,VALID,0.774609,
2012-01-27, 01:57:04,VALID,998.265,VALID,0,VALID,91.9522,VALID,0,VALID,24.0525,VALID,71,VALID,0.482031,
2012-01-27, 01:58:04,VALID,998.203,VALID,0,VALID,91.8759,VALID,0,VALID,24.0525,VALID,71,VALID,0.352734,
2012-01-27, 01:59:04,VALID,998.197,VALID,0,VALID,91.8225,VALID,0,VALID,24.0525,VALID,71,VALID,0,
2012-01-27, 02:00:04,VALID,998.174,VALID,0,VALID,91.7385,VALID,0,VALID,24.0525,VALID,71,VALID,0,
2012-01-27, 02:01:04,VALID,998.174,VALID,0,VALID,91.6623,VALID,0,VALID,24.0116,VALID,71,VALID,0,
2012-01-27, 02:02:04,VALID,998.212,VALID,0,VALID,91.6546,VALID,0,VALID,24.0329,VALID,71,VALID,0,
2012-01-27, 02:03:04,VALID,998.199,VALID,0,VALID,91.6928,VALID,0,VALID,24.0525,VALID,71,VALID,0,
2012-01-27, 02:04:04,VALID,998.23,VALID,0,VALID,91.6928,VALID,0,VALID,24.0525,VALID,71,VALID,0,
2012-01-27, 02:05:04,VALID,998.232,VALID,0,VALID,91.708,VALID,0,VALID,24.0525,VALID,71,VALID,0,
2012-01-27, 02:06:04,VALID,998.279,VALID,0,VALID,91.7309,VALID,0,VALID,24.0525,VALID,71,VALID,0,
2012-01-27, 02:07:04,VALID,998.231,VALID,0,VALID,91.853,VALID,0,VALID,24.0525,VALID,71,VALID,0,
2012-01-27, 02:08:04,VALID,998.235,VALID,0,VALID,91.8377,VALID,0,VALID,24.0525,VALID,27,VALID,0.492578,
2012-01-27, 02:09:04,VALID,998.222,VALID,0,VALID,91.8606,VALID,0,VALID,24.0506,VALID,344,VALID,0.703516,
2012-01-27, 02:10:04,VALID,998.221,VALID,0,VALID,91.8911,VALID,0,VALID,24.0915,VALID,344,VALID,0.623047,
2012-01-27, 02:11:04,VALID,998.233,VALID,0,VALID,91.9522,VALID,0,VALID,24.0915,VALID,344,VALID,0.360547,
2012-01-27, 02:12:04,VALID,998.224,VALID,0,VALID,91.9064,VALID,0,VALID,24.0897,VALID,344,VALID,0.299609,
2012-01-27, 02:13:04,VALID,998.268,VALID,0,VALID,91.8377,VALID,0,VALID,24.0915,VALID,344,VALID,0.292578,
2012-01-27, 02:14:04,VALID,998.256,VALID,0,VALID,91.7691,VALID,0,VALID,24.0915,VALID,344,VALID,0.211719,
2012-01-27, 02:15:04,VALID,998.279,VALID,0,VALID,91.647,VALID,0,VALID,24.0915,VALID,344,VALID,0,
2012-01-27, 02:16:04,VALID,998.297,VALID,0,VALID,91.6165,VALID,0,VALID,24.0915,VALID,344,VALID,0,
2012-01-27, 02:17:04,VALID,998.267,VALID,0,VALID,91.6394,VALID,0,VALID,24.0915,VALID,344,VALID,0,
2012-01-27, 02:18:04,VALID,998.228,VALID,0,VALID,91.6165,VALID,0,VALID,24.111,VALID,344,VALID,0.288281,
2012-01-27, 02:19:04,VALID,998.181,VALID,0,VALID,91.6623,VALID,0,VALID,24.1287,VALID,344,VALID,0.337891,
2012-01-27, 02:20:04,VALID,998.185,VALID,0,VALID,91.6317,VALID,0,VALID,24.1305,VALID,344,VALID,0.317969,
2012-01-27, 02:21:04,VALID,998.181,VALID,0,VALID,91.5783,VALID,0,VALID,24.15,VALID,344,VALID,0,
2012-01-27, 02:22:04,VALID,998.184,VALID,0,VALID,91.6165,VALID,0,VALID,24.1696,VALID,344,VALID,0,
2012-01-27, 02:23:04,VALID,998.222,VALID,0,VALID,91.6699,VALID,0,VALID,24.1482,VALID,344,VALID,0,
2012-01-27, 02:24:04,VALID,998.253,VALID,0,VALID,91.708,VALID,0,VALID,24.1696,VALID,344,VALID,0,
2012-01-27, 02:25:04,VALID,998.271,VALID,0,VALID,91.6928,VALID,0,VALID,24.1696,VALID,344,VALID,0,
2012-01-27, 02:26:04,VALID,998.284,VALID,0,VALID,91.6928,VALID,0,VALID,24.1891,VALID,129,VALID,0.208594,
2012-01-27, 02:27:04,VALID,998.278,VALID,0,VALID,91.6165,VALID,0,VALID,24.1677,VALID,133,VALID,1.52734,
2012-01-27, 02:28:04,VALID,998.305,VALID,0,VALID,91.6699,VALID,0,VALID,24.2086,VALID,140,VALID,1.14844,
2012-01-27, 02:29:04,VALID,998.26,VALID,0,VALID,91.6317,VALID,0,VALID,24.2086,VALID,141,VALID,1.35273,
2012-01-27, 02:30:04,VALID,998.296,VALID,0,VALID,91.7157,VALID,0,VALID,24.2086,VALID,133,VALID,1.80586,
2012-01-27, 02:31:04,VALID,998.316,VALID,0,VALID,91.6699,VALID,0,VALID,24.2281,VALID,139,VALID,1.9125,
2012-01-27, 02:32:04,VALID,998.344,VALID,0,VALID,91.5936,VALID,0,VALID,24.2086,VALID,136,VALID,2.06758,
2012-01-27, 02:33:04,VALID,998.357,VALID,0,VALID,91.6088,VALID,0,VALID,24.2086,VALID,137,VALID,1.56914,
2012-01-27, 02:34:04,VALID,998.348,VALID,0,VALID,91.6699,VALID,0,VALID,24.2086,VALID,133,VALID,1.9,
2012-01-27, 02:35:04,VALID,998.374,VALID,0,VALID,91.708,VALID,0,VALID,24.2086,VALID,134,VALID,1.33555,
2012-01-27, 02:36:04,VALID,998.357,VALID,0,VALID,91.7767,VALID,0,VALID,24.1891,VALID,131,VALID,1.50195,
2012-01-27, 02:37:04,VALID,998.387,VALID,0,VALID,91.8148,VALID,0,VALID,24.1891,VALID,128,VALID,1.07383,
2012-01-27, 02:38:04,VALID,998.374,VALID,0,VALID,91.8606,VALID,0,VALID,24.1891,VALID,128,VALID,1.24453,
2012-01-27, 02:39:04,VALID,998.381,VALID,0,VALID,91.8606,VALID,0,VALID,24.1696,VALID,138,VALID,1.73906,
2012-01-27, 02:40:04,VALID,998.377,VALID,0,VALID,91.9522,VALID,0,VALID,24.1891,VALID,144,VALID,1.86133,
2012-01-27, 02:41:04,VALID,998.411,VALID,0,VALID,91.4181,VALID,0,VALID,24.1696,VALID,123,VALID,2.46914,
2012-01-27, 02:42:04,VALID,998.405,VALID,0.5,VALID,91.2426,VALID,0,VALID,24.1482,VALID,118,VALID,2.40078,
2012-01-27, 02:43:04,VALID,998.416,VALID,0,VALID,90.968,VALID,0,VALID,24.15,VALID,133,VALID,1.8418,
2012-01-27, 02:44:04,VALID,998.4,VALID,0,VALID,90.35,VALID,0,VALID,24.111,VALID,118,VALID,2.63867,
2012-01-27, 02:45:04,VALID,998.441,VALID,0,VALID,89.8311,VALID,0,VALID,24.0897,VALID,109,VALID,2.4668,
2012-01-27, 02:46:04,VALID,998.407,VALID,0,VALID,89.999,VALID,0,VALID,24.0915,VALID,127,VALID,1.82539,
2012-01-27, 02:47:04,VALID,998.399,VALID,0,VALID,89.9532,VALID,0,VALID,24.072,VALID,114,VALID,2.09336,
2012-01-27, 02:48:04,VALID,998.406,VALID,0,VALID,89.6557,VALID,0,VALID,24.0134,VALID,106,VALID,1.68242,
2012-01-27, 02:49:04,VALID,998.425,VALID,0,VALID,89.6175,VALID,0,VALID,23.9726,VALID,111,VALID,1.7418,
2012-01-27, 02:50:04,VALID,998.396,VALID,0,VALID,89.6786,VALID,0,VALID,23.9531,VALID,104,VALID,2.13906,
2012-01-27, 02:51:04,VALID,998.364,VALID,0,VALID,89.8235,VALID,0,VALID,23.9531,VALID,117,VALID,1.33086,
2012-01-27, 02:52:04,VALID,998.346,VALID,0,VALID,90.0066,VALID,0,VALID,23.9549,VALID,112,VALID,1.53711,
2012-01-27, 02:53:04,VALID,998.32,VALID,0,VALID,90.0829,VALID,0,VALID,23.9354,VALID,116,VALID,1.71094,
2012-01-27, 02:54:04,VALID,998.299,VALID,0,VALID,89.8998,VALID,0,VALID,23.9159,VALID,106,VALID,2.37461,
2012-01-27, 02:55:04,VALID,998.26,VALID,0,VALID,89.5412,VALID,0,VALID,23.9159,VALID,118,VALID,2.91445,
2012-01-27, 02:56:04,VALID,998.265,VALID,0,VALID,89.442,VALID,0,VALID,23.9354,VALID,131,VALID,2.23555,
2012-01-27, 02:57:04,VALID,998.219,VALID,0,VALID,88.6943,VALID,0,VALID,23.914,VALID,121,VALID,3.81328,
2012-01-27, 02:58:04,VALID,998.22,VALID,0,VALID,88.1679,VALID,0,VALID,23.8945,VALID,132,VALID,3.64023,
2012-01-27, 02:59:04,VALID,998.179,VALID,0,VALID,87.4889,VALID,0,VALID,23.8768,VALID,127,VALID,4.93398,
2012-01-27, 03:00:04,VALID,998.267,VALID,0,VALID,87.321,VALID,0,VALID,23.7579,VALID,128,VALID,3.91914,
2012-01-27, 03:01:04,VALID,998.282,VALID,0.5,VALID,87.7101,VALID,0,VALID,23.7012,VALID,113,VALID,3.64375,
2012-01-27, 03:02:04,VALID,998.356,VALID,0,VALID,88.0763,VALID,0,VALID,23.6427,VALID,109,VALID,3.25586,
2012-01-27, 03:03:04,VALID,998.341,VALID,0,VALID,88.4426,VALID,0,VALID,23.5451,VALID,93,VALID,3.37852,
2012-01-27, 03:04:04,VALID,998.404,VALID,0,VALID,88.6943,VALID,0,VALID,23.5061,VALID,106,VALID,2.81445,
2012-01-27, 03:05:04,VALID,998.407,VALID,0,VALID,89.1292,VALID,0,VALID,23.4671,VALID,102,VALID,2.91133,
2012-01-27, 03:06:04,VALID,998.338,VALID,0.5,VALID,88.702,VALID,0,VALID,23.3695,VALID,110,VALID,3.16328,
2012-01-27, 03:07:04,VALID,998.329,VALID,0,VALID,88.7096,VALID,0,VALID,23.2737,VALID,122,VALID,3.44453,
2012-01-27, 03:08:04,VALID,998.324,VALID,0,VALID,88.8393,VALID,0,VALID,23.1762,VALID,116,VALID,2.52266,
2012-01-27, 03:09:04,VALID,998.332,VALID,0.5,VALID,89.1597,VALID,0,VALID,23.0786,VALID,119,VALID,2.89219,
2012-01-27, 03:10:04,VALID,998.359,VALID,0,VALID,89.4878,VALID,0,VALID,22.9811,VALID,109,VALID,2.99961,
2012-01-27, 03:11:04,VALID,998.371,VALID,0,VALID,89.587,VALID,0,VALID,22.8623,VALID,109,VALID,3.85234,
2012-01-27, 03:12:04,VALID,998.382,VALID,0,VALID,90.2508,VALID,0,VALID,22.8037,VALID,119,VALID,2.45625,
2012-01-27, 03:13:04,VALID,998.404,VALID,0.5,VALID,90.7314,VALID,0,VALID,22.7664,VALID,109,VALID,2.20547,
2012-01-27, 03:14:04,VALID,998.373,VALID,0,VALID,90.9985,VALID,0,VALID,22.7079,VALID,100,VALID,2.74961,
2012-01-27, 03:15:04,VALID,998.327,VALID,0,VALID,91.2121,VALID,0,VALID,22.6282,VALID,114,VALID,2.49961,
2012-01-27, 03:16:04,VALID,998.294,VALID,0,VALID,91.4334,VALID,0,VALID,22.5892,VALID,118,VALID,2.02656,
2012-01-27, 03:17:04,VALID,998.242,VALID,0,VALID,91.4181,VALID,0,VALID,22.5696,VALID,118,VALID,2.55039,
2012-01-27, 03:18:04,VALID,998.229,VALID,0,VALID,91.4639,VALID,0,VALID,22.5909,VALID,121,VALID,1.58789,
2012-01-27, 03:19:04,VALID,998.198,VALID,0,VALID,91.4944,VALID,0,VALID,22.5909,VALID,106,VALID,2.13906,
2012-01-27, 03:20:04,VALID,998.226,VALID,0,VALID,91.6088,VALID,0,VALID,22.5909,VALID,104,VALID,2.38125,
2012-01-27, 03:21:04,VALID,998.212,VALID,0,VALID,91.708,VALID,0,VALID,22.5892,VALID,94,VALID,1.88672,
2012-01-27, 03:22:04,VALID,998.196,VALID,0.5,VALID,91.7462,VALID,0,VALID,22.5892,VALID,101,VALID,1.55195,
2012-01-27, 03:23:04,VALID,998.182,VALID,0,VALID,91.8225,VALID,0,VALID,22.5892,VALID,115,VALID,1.91328,
2012-01-27, 03:24:04,VALID,998.162,VALID,0,VALID,91.8683,VALID,0,VALID,22.5696,VALID,128,VALID,2.17656,
2012-01-27, 03:25:04,VALID,998.123,VALID,0,VALID,91.8683,VALID,0,VALID,22.6104,VALID,131,VALID,1.88125,
2012-01-27, 03:26:04,VALID,998.089,VALID,0,VALID,91.8606,VALID,0,VALID,22.5909,VALID,142,VALID,1.84375,
2012-01-27, 03:27:04,VALID,998.047,VALID,0,VALID,91.7233,VALID,0,VALID,22.5696,VALID,124,VALID,1.71719,
2012-01-27, 03:28:04,VALID,998.072,VALID,0,VALID,91.5554,VALID,0,VALID,22.5501,VALID,107,VALID,1.11992,
2012-01-27, 03:29:04,VALID,998.078,VALID,0,VALID,91.5554,VALID,0,VALID,22.5714,VALID,121,VALID,1.55859,
2012-01-27, 03:30:04,VALID,998.069,VALID,0,VALID,91.6088,VALID,0,VALID,22.5501,VALID,114,VALID,1.78828,
2012-01-27, 03:31:04,VALID,998.055,VALID,0,VALID,91.5249,VALID,0,VALID,22.5501,VALID,105,VALID,1.24609,
2012-01-27, 03:32:04,VALID,998.076,VALID,0,VALID,91.6241,VALID,0,VALID,22.5714,VALID,98,VALID,1.45156,
2012-01-27, 03:33:04,VALID,998.06,VALID,0,VALID,91.6012,VALID,0,VALID,22.5484,VALID,95,VALID,1.70508,
2012-01-27, 03:34:04,VALID,998.054,VALID,0,VALID,91.5631,VALID,0,VALID,22.5501,VALID,91,VALID,1.55938,
2012-01-27, 03:35:04,VALID,998.076,VALID,0,VALID,91.6012,VALID,0,VALID,22.5696,VALID,94,VALID,1.23867,
2012-01-27, 03:36:04,VALID,998.067,VALID,0,VALID,91.647,VALID,0,VALID,22.5501,VALID,86,VALID,1.21211,
2012-01-27, 03:37:04,VALID,998.074,VALID,0,VALID,91.7309,VALID,0,VALID,22.5289,VALID,78,VALID,0.909766,
2012-01-27, 03:38:04,VALID,998.113,VALID,0,VALID,91.7538,VALID,0,VALID,22.5306,VALID,83,VALID,1.06406,
2012-01-27, 03:39:04,VALID,998.147,VALID,0,VALID,91.8148,VALID,0.104696,VALID,22.5094,VALID,98,VALID,1.01133,
2012-01-27, 03:40:04,VALID,998.176,VALID,0,VALID,91.8148,VALID,0,VALID,22.5111,VALID,108,VALID,1.89219,
2012-01-27, 03:41:04,VALID,998.205,VALID,0,VALID,91.7843,VALID,0,VALID,22.5501,VALID,98,VALID,1.90547,
2012-01-27, 03:42:04,VALID,998.208,VALID,0,VALID,91.7996,VALID,0,VALID,22.5696,VALID,82,VALID,1.46641,
2012-01-27, 03:43:04,VALID,998.202,VALID,0,VALID,91.7691,VALID,0,VALID,22.5679,VALID,87,VALID,1.78281,
2012-01-27, 03:44:04,VALID,998.193,VALID,0,VALID,91.7233,VALID,0,VALID,22.5679,VALID,80,VALID,0.644531,
2012-01-27, 03:45:04,VALID,998.189,VALID,0,VALID,91.7614,VALID,0,VALID,22.5892,VALID,95,VALID,0.603125,
2012-01-27, 03:46:04,VALID,998.188,VALID,0,VALID,91.8148,VALID,0,VALID,22.5892,VALID,113,VALID,0.423047,
2012-01-27, 03:47:04,VALID,998.192,VALID,0,VALID,91.8911,VALID,0,VALID,22.5696,VALID,119,VALID,0.919531,
2012-01-27, 03:48:04,VALID,998.16,VALID,0,VALID,92.0132,VALID,0,VALID,22.5696,VALID,118,VALID,1.1082,
2012-01-27, 03:49:04,VALID,998.171,VALID,0,VALID,92.0666,VALID,0,VALID,22.5892,VALID,118,VALID,0.478125,